{"data":{"norad_id":65142,"epoch":"2026-09-21T13:08:41.966880Z","epoch_age_seconds":74519,"freshness":"FRESH","line1":"1 65142U 25171L   26264.54770795  .00002195  00000+0  31687-3 0  9992","line2":"2 65142  51.9029  11.9807 0000424 104.7154 255.3855 14.79931047 61896","mean_motion":14.79931047,"eccentricity":4.24e-5,"inclination_deg":51.9029,"raan_deg":11.9807,"arg_perigee_deg":104.7154,"mean_anomaly_deg":255.3855,"bstar":0.00031687,"rev_number":6189,"period_min":97.301830576435,"perigee_km":629.24466873794,"apogee_km":629.8389198997,"semimajor_km":7007.6787943188,"source":"CELESTRAK","updated_at":"2026-09-22T09:00:30.153886Z"}}